Regional Weather Roundup
Issued by NWS

Home | Current Version | Previous Version | Text Only | Print | Product List | Glossary On
Versions: 1 2 3 4 5 6 7 8 9 10 11 12 13 14 15 16 17 18 19 20 21 22 23 24 25 26 27 28 29 30 31 32 33 34 35 36 37 38 39 40 41 42 43 44 45 46 47 48 49 50
000
ASUS43 KOAX 232010
RWRNE

WEATHER ROUNDUP FOR NEBRASKA
NATIONAL WEATHER SERVICE OMAHA NE
300 PM CDT WED JUL 23 2014

NOTES: SATELLITE DATA IS BEING USED TO AUGMENT CLOUD COVER ABOVE
       12000 FEET.
       "FAIR" INDICATES FEW OR NO CLOUDS BELOW 12,000 FEET WITH NO
       SIGNIFICANT WEATHER AND/OR OBSTRUCTIONS TO VISIBILITY.

  * THESE STATIONS DO NOT REPORT WEATHER SUCH AS RAIN...SNOW OR FOG.

NEZ001>004-019>022-054>056-232100-
NEBRASKA PANHANDLE

CITY           SKY/WX    TMP DP  RH WIND       PRES   REMARKS
SCOTTSBLUFF    SUNNY     90  65  43 S17       30.21F HX  92
ALLIANCE       SUNNY     92  55  28 S21G29    30.23F HX  90
CHADRON        SUNNY     92  54  27 SE20G29   30.17F HX  90
KIMBALL        MOSUNNY   77  64  63 S16G25    30.30F
SIDNEY         SUNNY     89  63  41 S20G29    30.28F HX  90
$$

NEZ057>060-069>072-079>082-232100-
SOUTHWEST NEBRASKA

CITY           SKY/WX    TMP DP  RH WIND       PRES   REMARKS
NORTH PLATTE   SUNNY     79  65  62 E16       30.22F
IMPERIAL       SUNNY     87  61  41 SW8       30.21F
LEXINGTON      PTSUNNY   78  64  60 E13       30.21F
MCCOOK         CLOUDY    82  65  56 E6        30.19F
OGALLALA       SUNNY     90  60  36 S6        30.21F
$$

NEZ005>010-023>029-035>040-094-232100-
NORTH CENTRAL NEBRASKA

CITY           SKY/WX    TMP DP  RH WIND       PRES   REMARKS
VALENTINE      SUNNY     87  59  38 SE14      30.23S
AINSWORTH      SUNNY     82  55  39 SE15      30.24F
BROKEN BOW     SUNNY     80  57  45 SE12G20   30.23F
O`NEILL        SUNNY     82  48  30 E10       30.25F
ORD            SUNNY     81  57  43 SE12      30.23F
THEDFORD       SUNNY     82  60  47 SE13G18   30.25F
$$

NEZ041-046>049-061>064-073>077-083>087-232100-
SOUTH CENTRAL NEBRASKA

CITY           SKY/WX    TMP DP  RH WIND       PRES   REMARKS
GRAND ISLAND   MOSUNNY   81  58  45 SE9       30.23F
AURORA         PTSUNNY   81  61  51 SE7       30.22F
HASTINGS       PTSUNNY   78  58  49 E8        30.22F
HEBRON         CLOUDY    82  57  42 E6        30.21F
HOLDREGE       PTSUNNY   78  62  58 E16       30.20F
KEARNEY *      MOSUNNY   81  59  47 E13       30.22F
YORK           PTSUNNY   81  61  50 E6        30.23F
$$

NEZ011>018-030>034-042>045-232100-
NORTHEAST NEBRASKA

CITY           SKY/WX    TMP DP  RH WIND       PRES   REMARKS
NORFOLK        SUNNY     82  56  40 E9        30.22F
ALBION         SUNNY     81  56  42 NE6       30.24F
BLAIR          SUNNY     82  48  30 NE7       30.21F
COLUMBUS *       N/A    N/A N/A N/A MISG        N/A
FREMONT        SUNNY     83  55  37 NE6       30.21F
TEKAMAH        SUNNY     85  57  38 NE9       30.20F
WAYNE          SUNNY     82  60  47 NE3       30.24S
$$

NEZ050>053-065>068-078-088>093-232100-
SOUTHEAST NEBRASKA

CITY           SKY/WX    TMP DP  RH WIND       PRES   REMARKS
LINCOLN        SUNNY     86  57  37 VRB5G16   30.21F
OMAHA EPPLEY   MOSUNNY   84  58  40 NE8       30.20F
BEATRICE       PTSUNNY   83  62  48 NE8       30.21S
FALLS CITY     MOSUNNY   85  65  51 NE8       30.17S
NEBRASKA CITY  MOSUNNY   82  58  44 NE7       30.20S
PLATTSMOUTH    MOSUNNY   84  54  36 NE9       30.20F
$$

NEZ044-045-051>053-067-232100-
OMAHA AREA

CITY           SKY/WX    TMP DP  RH WIND       PRES   REMARKS
OMAHA EPPLEY   MOSUNNY   84  58  40 NE8       30.20F
BLAIR          SUNNY     82  48  30 NE7       30.21F
FREMONT        SUNNY     83  55  37 NE6       30.21F
MILLARD        SUNNY     83  57  40 NE3       30.20F
OFFUTT AFB     SUNNY     85  61  44 N7        30.19F
PLATTSMOUTH    MOSUNNY   84  54  36 NE9       30.20F
WAHOO          FAIR      84  57  39 E5        30.21F
$$


USA.gov is the U.S. government's official web portal to all federal, state and local government web resources and services.